Time,TemperatureF,DewpointF,PressureIn,WindDirection,WindDirectionDegrees,WindSpeedMPH,WindSpeedGustMPH,Humidity,HourlyPrecipIn,Conditions,Clouds,dailyrainin,SoftwareType,DateUTC
2013-01-20 00:02:00,50.0,6.0,-100.00,ENE,67,3.0,10.0,16,-99.99,,,-99.99,,2013-01-20 08:02:00,
2013-01-20 00:12:00,49.0,5.0,-100.00,NE,40,3.0,9.0,16,-99.99,,,-99.99,,2013-01-20 08:12:00,
2013-01-20 00:22:00,50.0,6.0,-100.00,NE,38,2.0,6.0,16,-99.99,,,-99.99,,2013-01-20 08:22:00,
2013-01-20 00:32:00,49.0,6.0,-100.00,West,268,1.0,4.0,17,-99.99,,,-99.99,,2013-01-20 08:32:00,
2013-01-20 00:42:00,49.0,6.0,-100.00,West,261,2.0,7.0,17,-99.99,,,-99.99,,2013-01-20 08:42:00,
2013-01-20 00:52:00,50.0,6.0,-100.00,NNE,29,2.0,8.0,16,-99.99,,,-99.99,,2013-01-20 08:52:00,
2013-01-20 01:02:00,49.0,6.0,-100.00,NE,37,2.0,7.0,17,-99.99,,,-99.99,,2013-01-20 09:02:00,
2013-01-20 01:12:00,50.0,6.0,-100.00,NE,51,5.0,9.0,16,-99.99,,,-99.99,,2013-01-20 09:12:00,
2013-01-20 01:22:00,50.0,7.0,-100.00,NW,310,2.0,4.0,17,-99.99,,,-99.99,,2013-01-20 09:22:00,
2013-01-20 01:33:00,50.0,6.0,-100.00,NNW,341,2.0,7.0,16,-99.99,,,-99.99,,2013-01-20 09:33:00,
2013-01-20 01:42:00,51.0,5.0,-100.00,NNE,31,4.0,9.0,15,-99.99,,,-99.99,,2013-01-20 09:42:00,
2013-01-20 01:52:00,51.0,5.0,-100.00,NNE,33,2.0,6.0,15,-99.99,,,-99.99,,2013-01-20 09:52:00,
2013-01-20 02:02:00,51.0,5.0,-100.00,NNE,33,2.0,6.0,15,-99.99,,,-99.99,,2013-01-20 10:02:00,
2013-01-20 02:11:00,51.0,5.0,-100.00,ENE,67,3.0,8.0,15,-99.99,,,-99.99,,2013-01-20 10:11:00,
2013-01-20 02:22:00,51.0,6.0,-100.00,ENE,64,4.0,10.0,16,-99.99,,,-99.99,,2013-01-20 10:22:00,
2013-01-20 02:32:00,51.0,6.0,-100.00,ENE,59,2.0,6.0,16,-99.99,,,-99.99,,2013-01-20 10:32:00,
2013-01-20 02:42:00,50.0,7.0,-100.00,WNW,303,2.0,4.0,17,-99.99,,,-99.99,,2013-01-20 10:42:00,
2013-01-20 02:52:00,49.0,6.0,-100.00,WNW,292,2.0,4.0,17,-99.99,,,-99.99,,2013-01-20 10:52:00,
2013-01-20 03:02:00,48.0,5.0,-100.00,West,277,1.0,3.0,17,-99.99,,,-99.99,,2013-01-20 11:02:00,
2013-01-20 03:12:00,48.0,5.0,-100.00,East,92,1.0,3.0,17,-99.99,,,-99.99,,2013-01-20 11:12:00,
2013-01-20 03:22:00,48.0,7.0,-100.00,WNW,282,0.0,2.0,18,-99.99,,,-99.99,,2013-01-20 11:22:00,
2013-01-20 03:32:00,48.0,5.0,-100.00,WNW,292,1.0,2.0,17,-99.99,,,-99.99,,2013-01-20 11:32:00,
2013-01-20 03:42:00,48.0,5.0,-100.00,WNW,292,1.0,2.0,17,-99.99,,,-99.99,,2013-01-20 11:42:00,
2013-01-20 03:53:00,48.0,5.0,-100.00,SSE,163,1.0,3.0,17,-99.99,,,-99.99,,2013-01-20 11:53:00,
2013-01-20 04:02:00,48.0,5.0,-100.00,NW,305,1.0,4.0,17,-99.99,,,-99.99,,2013-01-20 12:02:00,
2013-01-20 04:12:00,47.0,7.0,-100.00,WSW,245,1.0,3.0,19,-99.99,,,-99.99,,2013-01-20 12:12:00,
2013-01-20 04:22:00,46.0,6.0,-100.00,SSW,211,0.0,2.0,19,-99.99,,,-99.99,,2013-01-20 12:22:00,
2013-01-20 04:33:00,47.0,6.0,-100.00,WNW,282,2.0,5.0,18,-99.99,,,-99.99,,2013-01-20 12:33:00,
2013-01-20 04:42:00,46.0,6.0,-100.00,WSW,243,2.0,4.0,19,-99.99,,,-99.99,,2013-01-20 12:42:00,
2013-01-20 04:52:00,47.0,6.0,-100.00,West,270,2.0,4.0,18,-99.99,,,-99.99,,2013-01-20 12:52:00,
2013-01-20 05:02:00,47.0,6.0,-100.00,West,276,2.0,6.0,18,-99.99,,,-99.99,,2013-01-20 13:02:00,
2013-01-20 05:12:00,48.0,5.0,-100.00,NNE,29,5.0,10.0,17,-99.99,,,-99.99,,2013-01-20 13:12:00,
2013-01-20 05:22:00,49.0,5.0,-100.00,ENE,64,6.0,12.0,16,-99.99,,,-99.99,,2013-01-20 13:22:00,
2013-01-20 05:32:00,49.0,3.0,-100.00,ENE,57,8.0,13.0,15,-99.99,,,-99.99,,2013-01-20 13:32:00,
2013-01-20 05:42:00,49.0,3.0,-100.00,ENE,57,8.0,13.0,15,-99.99,,,-99.99,,2013-01-20 13:42:00,
2013-01-20 05:52:00,49.0,3.0,-100.00,ENE,66,7.0,11.0,15,-99.99,,,-99.99,,2013-01-20 13:52:00,
2013-01-20 06:02:00,48.0,3.0,-100.00,ENE,69,6.0,12.0,15,-99.99,,,-99.99,,2013-01-20 14:02:00,
2013-01-20 06:12:00,49.0,3.0,-100.00,ENE,68,6.0,12.0,15,-99.99,,,-99.99,,2013-01-20 14:12:00,
2013-01-20 06:22:00,49.0,3.0,-100.00,ENE,64,8.0,13.0,15,-99.99,,,-99.99,,2013-01-20 14:22:00,
2013-01-20 06:32:00,49.0,3.0,-100.00,ENE,61,9.0,15.0,15,-99.99,,,-99.99,,2013-01-20 14:32:00,
2013-01-20 06:42:00,49.0,2.0,-100.00,NE,41,13.0,19.0,14,-99.99,,,-99.99,,2013-01-20 14:42:00,
2013-01-20 06:52:00,50.0,1.0,-100.00,NNE,31,12.0,16.0,13,-99.99,,,-99.99,,2013-01-20 14:52:00,
2013-01-20 07:02:00,49.0,2.0,-100.00,NE,34,10.0,16.0,14,-99.99,,,-99.99,,2013-01-20 15:02:00,
2013-01-20 07:12:00,49.0,2.0,-100.00,NNE,32,11.0,17.0,14,-99.99,,,-99.99,,2013-01-20 15:12:00,
2013-01-20 07:22:00,48.0,1.0,-100.00,NE,39,9.0,15.0,14,-99.99,,,-99.99,,2013-01-20 15:22:00,
2013-01-20 07:32:00,49.0,0.0,-100.00,NE,56,8.0,15.0,13,-99.99,,,-99.99,,2013-01-20 15:32:00,
2013-01-20 07:42:00,49.0,0.0,-100.00,ENE,67,10.0,19.0,13,-99.99,,,-99.99,,2013-01-20 15:42:00,
2013-01-20 07:52:00,49.0,0.0,-100.00,ENE,61,8.0,14.0,13,-99.99,,,-99.99,,2013-01-20 15:52:00,
2013-01-20 08:02:00,50.0,1.0,-100.00,ENE,68,7.0,16.0,13,-99.99,,,-99.99,,2013-01-20 16:02:00,
2013-01-20 08:12:00,51.0,2.0,-100.00,ENE,61,8.0,15.0,13,-99.99,,,-99.99,,2013-01-20 16:12:00,
2013-01-20 08:22:00,51.0,2.0,-100.00,ENE,64,7.0,11.0,13,-99.99,,,-99.99,,2013-01-20 16:22:00,
2013-01-20 08:32:00,51.0,2.0,-100.00,NE,51,6.0,12.0,13,-99.99,,,-99.99,,2013-01-20 16:32:00,
2013-01-20 08:42:00,52.0,3.0,-100.00,ENE,57,7.0,10.0,13,-99.99,,,-99.99,,2013-01-20 16:42:00,
2013-01-20 08:52:00,52.0,3.0,-100.00,ENE,58,6.0,11.0,13,-99.99,,,-99.99,,2013-01-20 16:52:00,
2013-01-20 09:02:00,52.0,3.0,-100.00,NE,53,6.0,14.0,13,-99.99,,,-99.99,,2013-01-20 17:02:00,
2013-01-20 09:12:00,53.0,4.0,-100.00,ENE,78,5.0,10.0,13,-99.99,,,-99.99,,2013-01-20 17:12:00,
2013-01-20 09:22:00,53.0,4.0,-100.00,East,83,6.0,13.0,13,-99.99,,,-99.99,,2013-01-20 17:22:00,
2013-01-20 09:32:00,54.0,4.0,-100.00,East,83,5.0,11.0,13,-99.99,,,-99.99,,2013-01-20 17:32:00,
2013-01-20 09:42:00,54.0,4.0,-100.00,East,82,6.0,12.0,13,-99.99,,,-99.99,,2013-01-20 17:42:00,
2013-01-20 09:52:00,54.0,3.0,-100.00,ENE,74,8.0,14.0,12,-99.99,,,-99.99,,2013-01-20 17:52:00,
2013-01-20 10:02:00,54.0,3.0,-100.00,ENE,63,5.0,12.0,12,-99.99,,,-99.99,,2013-01-20 18:02:00,
2013-01-20 10:12:00,55.0,3.0,-100.00,East,80,5.0,13.0,12,-99.99,,,-99.99,,2013-01-20 18:12:00,
2013-01-20 10:23:00,54.0,4.0,-100.00,ENE,74,9.0,15.0,13,-99.99,,,-99.99,,2013-01-20 18:23:00,
2013-01-20 10:33:00,55.0,5.0,-100.00,ENE,76,7.0,12.0,13,-99.99,,,-99.99,,2013-01-20 18:33:00,
2013-01-20 10:42:00,55.0,5.0,-100.00,ENE,69,7.0,14.0,13,-99.99,,,-99.99,,2013-01-20 18:42:00,
2013-01-20 10:52:00,55.0,5.0,-100.00,ENE,70,8.0,14.0,13,-99.99,,,-99.99,,2013-01-20 18:52:00,
2013-01-20 11:02:00,55.0,5.0,-100.00,ENE,72,7.0,12.0,13,-99.99,,,-99.99,,2013-01-20 19:02:00,
2013-01-20 11:12:00,55.0,5.0,-100.00,ENE,62,8.0,16.0,13,-99.99,,,-99.99,,2013-01-20 19:12:00,
2013-01-20 11:22:00,56.0,6.0,-100.00,ENE,69,5.0,14.0,13,-99.99,,,-99.99,,2013-01-20 19:22:00,
2013-01-20 11:33:00,55.0,5.0,-100.00,ENE,63,8.0,17.0,13,-99.99,,,-99.99,,2013-01-20 19:33:00,
2013-01-20 11:42:00,55.0,5.0,-100.00,ENE,64,8.0,18.0,13,-99.99,,,-99.99,,2013-01-20 19:42:00,
2013-01-20 11:52:00,55.0,5.0,-100.00,ENE,59,9.0,17.0,13,-99.99,,,-99.99,,2013-01-20 19:52:00,
2013-01-20 12:02:00,55.0,5.0,-100.00,ENE,60,8.0,14.0,13,-99.99,,,-99.99,,2013-01-20 20:02:00,
2013-01-20 12:12:00,56.0,6.0,-100.00,ENE,65,8.0,17.0,13,-99.99,,,-99.99,,2013-01-20 20:12:00,
2013-01-20 12:22:00,56.0,6.0,-100.00,ENE,59,7.0,15.0,13,-99.99,,,-99.99,,2013-01-20 20:22:00,
2013-01-20 12:32:00,56.0,6.0,-100.00,NE,53,7.0,15.0,13,-99.99,,,-99.99,,2013-01-20 20:32:00,
2013-01-20 12:42:00,56.0,6.0,-100.00,ENE,60,7.0,12.0,13,-99.99,,,-99.99,,2013-01-20 20:42:00,
2013-01-20 12:52:00,56.0,6.0,-100.00,ENE,68,8.0,15.0,13,-99.99,,,-99.99,,2013-01-20 20:52:00,
2013-01-20 13:03:00,55.0,5.0,-100.00,NE,46,8.0,15.0,13,-99.99,,,-99.99,,2013-01-20 21:03:00,
2013-01-20 13:12:00,56.0,6.0,-100.00,NE,44,7.0,17.0,13,-99.99,,,-99.99,,2013-01-20 21:12:00,
2013-01-20 13:22:00,55.0,5.0,-100.00,ENE,69,10.0,16.0,13,-99.99,,,-99.99,,2013-01-20 21:22:00,
2013-01-20 13:33:00,55.0,5.0,-100.00,ENE,62,8.0,17.0,13,-99.99,,,-99.99,,2013-01-20 21:33:00,
2013-01-20 13:42:00,54.0,4.0,-100.00,ENE,58,9.0,16.0,13,-99.99,,,-99.99,,2013-01-20 21:42:00,
2013-01-20 13:52:00,54.0,4.0,-100.00,ENE,64,7.0,16.0,13,-99.99,,,-99.99,,2013-01-20 21:52:00,
2013-01-20 14:02:00,54.0,4.0,-100.00,ENE,60,9.0,15.0,13,-99.99,,,-99.99,,2013-01-20 22:02:00,
2013-01-20 14:12:00,54.0,4.0,-100.00,ENE,57,7.0,16.0,13,-99.99,,,-99.99,,2013-01-20 22:12:00,
2013-01-20 14:22:00,54.0,6.0,-100.00,NE,53,6.0,16.0,14,-99.99,,,-99.99,,2013-01-20 22:22:00,
2013-01-20 14:32:00,54.0,4.0,-100.00,ENE,65,10.0,19.0,13,-99.99,,,-99.99,,2013-01-20 22:32:00,
2013-01-20 14:42:00,55.0,5.0,-100.00,ENE,67,5.0,17.0,13,-99.99,,,-99.99,,2013-01-20 22:42:00,
2013-01-20 14:52:00,54.0,6.0,-100.00,ENE,58,10.0,17.0,14,-99.99,,,-99.99,,2013-01-20 22:52:00,
2013-01-20 15:02:00,54.0,6.0,-100.00,ENE,58,10.0,17.0,14,-99.99,,,-99.99,,2013-01-20 23:02:00,
2013-01-20 15:12:00,54.0,4.0,-100.00,ENE,71,10.0,18.0,13,-99.99,,,-99.99,,2013-01-20 23:12:00,
2013-01-20 15:22:00,54.0,4.0,-100.00,ENE,63,9.0,17.0,13,-99.99,,,-99.99,,2013-01-20 23:22:00,
2013-01-20 15:33:00,55.0,3.0,-100.00,ENE,69,9.0,20.0,12,-99.99,,,-99.99,,2013-01-20 23:33:00,
2013-01-20 15:42:00,56.0,4.0,-100.00,ENE,72,5.0,12.0,12,-99.99,,,-99.99,,2013-01-20 23:42:00,
2013-01-20 15:52:00,56.0,4.0,-100.00,ESE,102,4.0,12.0,12,-99.99,,,-99.99,,2013-01-20 23:52:00,
2013-01-20 16:02:00,55.0,3.0,-100.00,ENE,69,7.0,17.0,12,-99.99,,,-99.99,,2013-01-21 00:02:00,
2013-01-20 16:12:00,55.0,3.0,-100.00,NNE,19,5.0,14.0,12,-99.99,,,-99.99,,2013-01-21 00:12:00,
2013-01-20 16:22:00,56.0,4.0,-100.00,East,81,3.0,8.0,12,-99.99,,,-99.99,,2013-01-21 00:22:00,
2013-01-20 16:32:00,56.0,4.0,-100.00,NNW,330,5.0,11.0,12,-99.99,,,-99.99,,2013-01-21 00:32:00,
2013-01-20 16:42:00,55.0,3.0,-100.00,East,86,3.0,8.0,12,-99.99,,,-99.99,,2013-01-21 00:42:00,
2013-01-20 16:53:00,55.0,3.0,-100.00,West,271,3.0,8.0,12,-99.99,,,-99.99,,2013-01-21 00:53:00,
2013-01-20 17:02:00,55.0,3.0,-100.00,SSE,155,3.0,9.0,12,-99.99,,,-99.99,,2013-01-21 01:02:00,
2013-01-20 17:12:00,54.0,4.0,-100.00,SW,220,3.0,8.0,13,-99.99,,,-99.99,,2013-01-21 01:12:00,
2013-01-20 17:22:00,53.0,4.0,-100.00,WSW,248,1.0,4.0,13,-99.99,,,-99.99,,2013-01-21 01:22:00,
2013-01-20 17:32:00,52.0,3.0,-100.00,NNE,16,4.0,9.0,13,-99.99,,,-99.99,,2013-01-21 01:32:00,
2013-01-20 17:42:00,51.0,2.0,-100.00,NNW,340,2.0,7.0,13,-99.99,,,-99.99,,2013-01-21 01:42:00,
2013-01-20 17:52:00,51.0,2.0,-100.00,NNW,345,3.0,8.0,13,-99.99,,,-99.99,,2013-01-21 01:52:00,
2013-01-20 18:02:00,51.0,2.0,-100.00,NNW,345,3.0,8.0,13,-99.99,,,-99.99,,2013-01-21 02:02:00,
2013-01-20 18:12:00,50.0,3.0,-100.00,NNW,336,2.0,4.0,14,-99.99,,,-99.99,,2013-01-21 02:12:00,
2013-01-20 18:22:00,50.0,3.0,-100.00,NW,318,2.0,5.0,14,-99.99,,,-99.99,,2013-01-21 02:22:00,
2013-01-20 18:33:00,50.0,3.0,-100.00,NW,309,1.0,5.0,14,-99.99,,,-99.99,,2013-01-21 02:33:00,
2013-01-20 18:42:00,50.0,3.0,-100.00,NE,34,1.0,4.0,14,-99.99,,,-99.99,,2013-01-21 02:42:00,
2013-01-20 18:52:00,50.0,3.0,-100.00,North,351,2.0,6.0,14,-99.99,,,-99.99,,2013-01-21 02:52:00,
2013-01-20 19:02:00,50.0,3.0,-100.00,NNE,17,3.0,8.0,14,-99.99,,,-99.99,,2013-01-21 03:02:00,
2013-01-20 19:12:00,50.0,3.0,-100.00,ENE,57,2.0,8.0,14,-99.99,,,-99.99,,2013-01-21 03:12:00,
2013-01-20 19:23:00,50.0,3.0,-100.00,West,271,1.0,5.0,14,-99.99,,,-99.99,,2013-01-21 03:23:00,
2013-01-20 19:32:00,50.0,1.0,-100.00,NW,315,3.0,7.0,13,-99.99,,,-99.99,,2013-01-21 03:32:00,
2013-01-20 19:43:00,50.0,1.0,-100.00,NW,315,3.0,7.0,13,-99.99,,,-99.99,,2013-01-21 03:43:00,
2013-01-20 19:52:00,50.0,3.0,-100.00,NW,311,2.0,5.0,14,-99.99,,,-99.99,,2013-01-21 03:52:00,
2013-01-20 20:02:00,50.0,3.0,-100.00,NW,311,2.0,5.0,14,-99.99,,,-99.99,,2013-01-21 04:02:00,
2013-01-20 20:12:00,50.0,1.0,-100.00,NW,309,3.0,5.0,13,-99.99,,,-99.99,,2013-01-21 04:12:00,
2013-01-20 20:22:00,51.0,2.0,-100.00,North,353,4.0,7.0,13,-99.99,,,-99.99,,2013-01-21 04:22:00,
2013-01-20 20:32:00,51.0,2.0,-100.00,NNW,348,5.0,8.0,13,-99.99,,,-99.99,,2013-01-21 04:32:00,
2013-01-20 20:42:00,51.0,2.0,-100.00,NNW,348,5.0,8.0,13,-99.99,,,-99.99,,2013-01-21 04:42:00,
2013-01-20 20:52:00,51.0,2.0,-100.00,North,355,4.0,8.0,13,-99.99,,,-99.99,,2013-01-21 04:52:00,
2013-01-20 21:03:00,51.0,2.0,-100.00,North,10,5.0,7.0,13,-99.99,,,-99.99,,2013-01-21 05:03:00,
2013-01-20 21:12:00,51.0,2.0,-100.00,North,8,5.0,7.0,13,-99.99,,,-99.99,,2013-01-21 05:12:00,
2013-01-20 21:22:00,51.0,2.0,-100.00,North,357,3.0,6.0,13,-99.99,,,-99.99,,2013-01-21 05:22:00,
2013-01-20 21:33:00,50.0,1.0,-100.00,NNW,342,3.0,6.0,13,-99.99,,,-99.99,,2013-01-21 05:33:00,
2013-01-20 21:42:00,50.0,1.0,-100.00,NNW,342,3.0,6.0,13,-99.99,,,-99.99,,2013-01-21 05:42:00,
2013-01-20 21:52:00,50.0,1.0,-100.00,NW,312,5.0,8.0,13,-99.99,,,-99.99,,2013-01-21 05:52:00,
2013-01-20 22:02:00,50.0,1.0,-100.00,NW,325,5.0,10.0,13,-99.99,,,-99.99,,2013-01-21 06:02:00,
2013-01-20 22:12:00,50.0,1.0,-100.00,NW,318,5.0,8.0,13,-99.99,,,-99.99,,2013-01-21 06:12:00,
2013-01-20 22:22:00,50.0,1.0,-100.00,NW,309,5.0,8.0,13,-99.99,,,-99.99,,2013-01-21 06:22:00,
2013-01-20 22:32:00,50.0,1.0,-100.00,WNW,300,3.0,5.0,13,-99.99,,,-99.99,,2013-01-21 06:32:00,
2013-01-20 22:43:00,50.0,1.0,-100.00,West,268,2.0,5.0,13,-99.99,,,-99.99,,2013-01-21 06:43:00,
2013-01-20 22:52:00,50.0,1.0,-100.00,WNW,285,2.0,3.0,13,-99.99,,,-99.99,,2013-01-21 06:52:00,
2013-01-20 23:02:00,50.0,1.0,-100.00,WNW,285,2.0,3.0,13,-99.99,,,-99.99,,2013-01-21 07:02:00,
2013-01-20 23:12:00,50.0,-1.0,-100.00,NW,311,2.0,4.0,12,-99.99,,,-99.99,,2013-01-21 07:12:00,
2013-01-20 23:22:00,50.0,-1.0,-100.00,NNE,21,2.0,5.0,12,-99.99,,,-99.99,,2013-01-21 07:22:00,
2013-01-20 23:33:00,50.0,-1.0,-100.00,WSW,242,1.0,4.0,12,-99.99,,,-99.99,,2013-01-21 07:33:00,
2013-01-20 23:42:00,50.0,-1.0,-100.00,WSW,242,1.0,4.0,12,-99.99,,,-99.99,,2013-01-21 07:42:00,
2013-01-20 23:52:00,50.0,-1.0,-100.00,East,95,1.0,4.0,12,-99.99,,,-99.99,,2013-01-21 07:52:00,